Time,TemperatureF,DewpointF,PressureIn,WindDirection,WindDirectionDegrees,WindSpeedMPH,WindSpeedGustMPH,Humidity,HourlyPrecipIn,Conditions,Clouds,dailyrainin,SoftwareType,DateUTC
2013-01-06 00:00:00,31.3,19.0,30.08,NE,45,0.0,0.0,60,0.00,RA,,0.00,WeatherDisplay:10.37,2013-01-06 05:00:00,
2013-01-06 00:05:00,31.3,19.0,30.08,NE,45,0.0,0.0,60,0.00,RA,,0.00,WeatherDisplay:10.37,2013-01-06 05:05:00,
2013-01-06 00:10:00,31.3,19.0,30.08,NE,45,0.0,0.0,60,0.00,CLR,,0.00,WeatherDisplay:10.37,2013-01-06 05:10:00,
2013-01-06 00:15:00,31.5,19.2,30.08,NE,45,0.0,0.0,60,0.00,CLR,,0.00,WeatherDisplay:10.37,2013-01-06 05:15:00,
2013-01-06 00:20:00,31.1,19.2,30.08,NE,45,0.0,0.0,61,0.00,CLR,,0.00,WeatherDisplay:10.37,2013-01-06 05:20:00,
2013-01-06 00:25:00,31.1,19.2,30.08,NE,45,0.0,0.0,61,0.00,CLR,,0.00,WeatherDisplay:10.37,2013-01-06 05:25:00,
2013-01-06 00:30:00,31.1,19.2,30.08,NE,45,0.0,0.0,61,0.00,CLR,,0.00,WeatherDisplay:10.37,2013-01-06 05:30:00,
2013-01-06 00:35:00,31.1,19.2,30.08,NE,45,0.0,0.0,61,0.00,CLR,,0.00,WeatherDisplay:10.37,2013-01-06 05:35:00,
2013-01-06 00:40:00,30.9,19.0,30.07,NE,45,0.0,0.0,61,0.00,CLR,,0.00,WeatherDisplay:10.37,2013-01-06 05:40:00,
2013-01-06 00:45:00,30.9,19.0,30.07,NE,45,0.0,0.0,61,0.00,CLR,,0.00,WeatherDisplay:10.37,2013-01-06 05:45:00,
2013-01-06 00:50:00,30.9,19.1,30.06,NE,45,0.0,0.0,61,0.00,CLR,,0.00,WeatherDisplay:10.37,2013-01-06 05:50:00,
2013-01-06 00:55:00,30.9,19.0,30.06,NE,45,0.0,0.0,61,0.00,CLR,,0.00,WeatherDisplay:10.37,2013-01-06 05:55:00,
2013-01-06 01:00:00,30.9,19.0,30.06,NE,45,0.0,0.0,61,0.00,CLR,,0.00,WeatherDisplay:10.37,2013-01-06 06:00:00,
2013-01-06 01:05:00,31.1,19.2,30.06,NE,35,0.0,0.0,61,0.00,CLR,,0.00,WeatherDisplay:10.37,2013-01-06 06:05:00,
2013-01-06 01:10:00,31.1,19.2,30.06,NNE,23,0.0,0.0,61,0.00,CLR,,0.00,WeatherDisplay:10.37,2013-01-06 06:10:00,
2013-01-06 01:15:00,31.3,19.4,30.07,East,87,0.0,0.0,61,0.00,CLR,,0.00,WeatherDisplay:10.37,2013-01-06 06:15:00,
2013-01-06 01:20:00,31.5,19.5,30.07,SE,135,0.0,0.0,61,0.00,CLR,,0.00,WeatherDisplay:10.37,2013-01-06 06:20:00,
2013-01-06 01:25:00,31.5,19.5,30.06,SE,146,0.0,0.0,61,0.00,CLR,,0.00,WeatherDisplay:10.37,2013-01-06 06:25:00,
2013-01-06 01:30:00,31.6,19.7,30.06,SSE,158,0.0,0.0,61,0.00,CLR,,0.00,WeatherDisplay:10.37,2013-01-06 06:30:00,
2013-01-06 01:35:00,31.6,19.7,30.06,SE,132,0.0,0.0,61,0.00,CLR,,0.00,WeatherDisplay:10.37,2013-01-06 06:35:00,
2013-01-06 01:40:00,31.6,19.7,30.07,ESE,119,0.0,0.0,61,0.00,CLR,,0.00,WeatherDisplay:10.37,2013-01-06 06:40:00,
2013-01-06 01:45:00,31.6,19.7,30.06,SSE,156,0.0,0.0,61,0.00,CLR,,0.00,WeatherDisplay:10.37,2013-01-06 06:45:00,
2013-01-06 01:50:00,32.0,20.1,30.07,SE,130,0.0,0.0,61,0.00,CLR,,0.00,WeatherDisplay:10.37,2013-01-06 06:50:00,
2013-01-06 01:55:00,31.8,19.5,30.06,SSE,166,0.0,0.0,60,0.00,CLR,,0.00,WeatherDisplay:10.37,2013-01-06 06:55:00,
2013-01-06 02:00:00,32.2,19.8,30.06,SW,225,0.0,0.0,60,0.00,CLR,,0.00,WeatherDisplay:10.37,2013-01-06 07:00:00,
2013-01-06 02:05:00,32.2,19.8,30.06,SW,214,1.0,1.0,60,0.00,CLR,,0.00,WeatherDisplay:10.37,2013-01-06 07:05:00,
2013-01-06 02:10:00,32.2,19.8,30.06,South,178,0.0,1.0,60,0.00,CLR,,0.00,WeatherDisplay:10.37,2013-01-06 07:10:00,
2013-01-06 02:15:00,32.2,19.8,30.06,SSE,158,0.0,0.0,60,0.00,CLR,,0.00,WeatherDisplay:10.37,2013-01-06 07:15:00,
2013-01-06 02:20:00,32.2,19.8,30.06,SSE,158,0.0,0.0,60,0.00,CLR,,0.00,WeatherDisplay:10.37,2013-01-06 07:20:00,
2013-01-06 02:25:00,32.2,19.8,30.06,SE,138,0.0,0.0,60,0.00,CLR,,0.00,WeatherDisplay:10.37,2013-01-06 07:25:00,
2013-01-06 02:30:00,32.2,19.8,30.06,SE,124,0.0,0.0,60,0.00,CLR,,0.00,WeatherDisplay:10.37,2013-01-06 07:30:00,
2013-01-06 02:35:00,32.4,20.0,30.06,ESE,122,0.0,0.0,60,0.00,CLR,,0.00,WeatherDisplay:10.37,2013-01-06 07:35:00,
2013-01-06 02:40:00,32.4,20.0,30.06,East,82,0.0,0.0,60,0.00,CLR,,0.00,WeatherDisplay:10.37,2013-01-06 07:40:00,
2013-01-06 02:45:00,32.4,20.0,30.06,NE,48,0.0,0.0,60,0.00,CLR,,0.00,WeatherDisplay:10.37,2013-01-06 07:45:00,
2013-01-06 02:50:00,32.4,20.0,30.06,NE,45,0.0,0.0,60,0.00,CLR,,0.00,WeatherDisplay:10.37,2013-01-06 07:50:00,
2013-01-06 02:55:00,32.4,20.0,30.06,NE,45,0.0,0.0,60,0.00,CLR,,0.00,WeatherDisplay:10.37,2013-01-06 07:55:00,
2013-01-06 03:00:00,32.4,20.0,30.06,NE,45,0.0,0.0,60,0.00,CLR,,0.00,WeatherDisplay:10.37,2013-01-06 08:00:00,
2013-01-06 03:05:00,32.4,20.0,30.06,NE,51,0.0,0.0,60,0.00,CLR,,0.00,WeatherDisplay:10.37,2013-01-06 08:05:00,
2013-01-06 03:10:00,32.4,20.0,30.06,ENE,64,0.0,1.0,60,0.00,CLR,,0.00,WeatherDisplay:10.37,2013-01-06 08:10:00,
2013-01-06 03:15:00,32.4,20.0,30.05,ESE,119,0.0,1.0,60,0.00,CLR,,0.00,WeatherDisplay:10.37,2013-01-06 08:15:00,
2013-01-06 03:20:00,32.4,20.0,30.05,SE,135,0.0,0.0,60,0.00,CLR,,0.00,WeatherDisplay:10.37,2013-01-06 08:20:00,
2013-01-06 03:25:00,32.4,20.1,30.05,NW,325,0.0,0.0,60,0.00,CLR,,0.00,WeatherDisplay:10.37,2013-01-06 08:25:00,
2013-01-06 03:30:00,32.5,20.2,30.05,NNW,339,0.0,0.0,60,0.00,CLR,,0.00,WeatherDisplay:10.37,2013-01-06 08:30:00,
2013-01-06 03:35:00,32.5,20.2,30.05,North,359,0.0,0.0,60,0.00,CLR,,0.00,WeatherDisplay:10.37,2013-01-06 08:35:00,
2013-01-06 03:40:00,32.5,20.2,30.03,NW,323,0.0,0.0,60,0.00,CLR,,0.00,WeatherDisplay:10.37,2013-01-06 08:40:00,
2013-01-06 03:45:00,32.5,20.2,30.04,SW,231,0.0,0.0,60,0.00,CLR,,0.00,WeatherDisplay:10.37,2013-01-06 08:45:00,
2013-01-06 03:50:00,32.5,20.2,30.04,SE,134,0.0,0.0,60,0.00,CLR,,0.00,WeatherDisplay:10.37,2013-01-06 08:50:00,
2013-01-06 03:55:00,32.5,20.2,30.03,ENE,68,0.0,0.0,60,0.00,CLR,,0.00,WeatherDisplay:10.37,2013-01-06 08:55:00,
2013-01-06 04:00:00,32.5,20.2,30.04,NNE,25,0.0,0.0,60,0.00,CLR,,0.00,WeatherDisplay:10.37,2013-01-06 09:00:00,
2013-01-06 04:05:00,32.5,20.2,30.04,NE,46,0.0,0.0,60,0.00,CLR,,0.00,WeatherDisplay:10.37,2013-01-06 09:05:00,
2013-01-06 04:10:00,32.4,20.1,30.02,SE,132,0.0,0.0,60,0.00,CLR,,0.00,WeatherDisplay:10.37,2013-01-06 09:10:00,
2013-01-06 04:15:00,32.5,20.2,30.02,SSE,148,0.0,0.0,60,0.00,CLR,,0.00,WeatherDisplay:10.37,2013-01-06 09:15:00,
2013-01-06 04:20:00,32.5,20.2,30.02,South,177,0.0,0.0,60,0.00,CLR,,0.00,WeatherDisplay:10.37,2013-01-06 09:20:00,
2013-01-06 04:25:00,32.4,20.1,30.02,South,171,0.0,0.0,60,0.00,CLR,,0.00,WeatherDisplay:10.37,2013-01-06 09:25:00,
2013-01-06 04:30:00,32.4,20.0,30.02,ENE,74,0.0,0.0,60,0.00,CLR,,0.00,WeatherDisplay:10.37,2013-01-06 09:30:00,
2013-01-06 04:35:00,32.4,20.0,30.02,NE,45,0.0,0.0,60,0.00,CLR,,0.00,WeatherDisplay:10.37,2013-01-06 09:35:00,
2013-01-06 04:40:00,32.2,19.8,30.02,NE,45,0.0,0.0,60,0.00,CLR,,0.00,WeatherDisplay:10.37,2013-01-06 09:40:00,
2013-01-06 04:45:00,32.2,19.8,30.02,NE,45,0.0,0.0,60,0.00,CLR,,0.00,WeatherDisplay:10.37,2013-01-06 09:45:00,
2013-01-06 04:50:00,31.6,19.3,30.02,NNE,33,0.0,0.0,60,0.00,CLR,,0.00,WeatherDisplay:10.37,2013-01-06 09:50:00,
2013-01-06 04:55:00,31.5,19.2,30.01,ENE,57,0.0,0.0,60,0.00,CLR,,0.00,WeatherDisplay:10.37,2013-01-06 09:55:00,
2013-01-06 05:00:00,31.3,19.0,30.01,SE,128,0.0,0.0,60,0.00,CLR,,0.00,WeatherDisplay:10.37,2013-01-06 10:00:00,
2013-01-06 05:05:00,30.9,18.7,30.02,ESE,113,0.0,0.0,60,0.00,CLR,,0.00,WeatherDisplay:10.37,2013-01-06 10:05:00,
2013-01-06 05:10:00,30.6,18.3,30.01,ESE,120,0.0,0.0,60,0.00,CLR,,0.00,WeatherDisplay:10.37,2013-01-06 10:10:00,
2013-01-06 05:15:00,30.4,18.1,30.02,SE,131,0.0,0.0,60,0.00,CLR,,0.00,WeatherDisplay:10.37,2013-01-06 10:15:00,
2013-01-06 05:20:00,30.0,17.8,30.01,SE,135,0.0,0.0,60,0.00,CLR,,0.00,WeatherDisplay:10.37,2013-01-06 10:20:00,
2013-01-06 05:25:00,29.7,17.5,30.02,SE,135,0.0,0.0,60,0.00,CLR,,0.00,WeatherDisplay:10.37,2013-01-06 10:25:00,
2013-01-06 05:30:00,29.3,17.1,30.02,SE,135,0.0,0.0,60,0.00,CLR,,0.00,WeatherDisplay:10.37,2013-01-06 10:30:00,
2013-01-06 05:35:00,29.1,17.3,30.02,SSE,160,0.0,0.0,61,0.00,CLR,,0.00,WeatherDisplay:10.37,2013-01-06 10:35:00,
2013-01-06 05:40:00,28.8,17.0,30.02,SSW,211,0.0,0.0,61,0.00,CLR,,0.00,WeatherDisplay:10.37,2013-01-06 10:40:00,
2013-01-06 05:45:00,28.6,16.8,30.02,SW,225,0.0,0.0,61,0.00,CLR,,0.00,WeatherDisplay:10.37,2013-01-06 10:45:00,
2013-01-06 05:50:00,28.4,16.7,30.02,SW,225,0.0,0.0,61,0.00,CLR,,0.00,WeatherDisplay:10.37,2013-01-06 10:50:00,
2013-01-06 05:55:00,28.0,16.7,30.02,SW,225,0.0,0.0,62,0.00,CLR,,0.00,WeatherDisplay:10.37,2013-01-06 10:55:00,
2013-01-06 06:00:00,27.9,16.5,30.02,SW,225,0.0,0.0,62,0.00,CLR,,0.00,WeatherDisplay:10.37,2013-01-06 11:00:00,
2013-01-06 06:05:00,27.8,16.5,30.02,SW,225,0.0,0.0,62,0.00,CLR,,0.00,WeatherDisplay:10.37,2013-01-06 11:05:00,
2013-01-06 06:10:00,27.7,16.7,30.02,SW,225,0.0,0.0,63,0.00,CLR,,0.00,WeatherDisplay:10.37,2013-01-06 11:10:00,
2013-01-06 06:15:00,27.5,16.5,30.02,SW,225,0.0,0.0,63,0.00,CLR,,0.00,WeatherDisplay:10.37,2013-01-06 11:15:00,
2013-01-06 06:20:00,27.5,16.5,30.03,SW,225,0.0,0.0,63,0.00,CLR,,0.00,WeatherDisplay:10.37,2013-01-06 11:20:00,
2013-01-06 06:25:00,27.7,17.1,30.03,SW,225,0.0,0.0,64,0.00,CLR,,0.00,WeatherDisplay:10.37,2013-01-06 11:25:00,
2013-01-06 06:30:00,28.0,17.8,30.03,WSW,249,0.0,0.0,65,0.00,CLR,,0.00,WeatherDisplay:10.37,2013-01-06 11:30:00,
2013-01-06 06:35:00,28.6,18.3,30.02,NNW,336,0.0,0.0,65,0.00,CLR,,0.00,WeatherDisplay:10.37,2013-01-06 11:35:00,
2013-01-06 06:40:00,28.6,18.7,30.02,NW,319,0.0,0.0,66,0.00,CLR,,0.00,WeatherDisplay:10.37,2013-01-06 11:40:00,
2013-01-06 06:45:00,28.9,19.0,30.02,NNW,331,0.0,0.0,66,0.00,CLR,,0.00,WeatherDisplay:10.37,2013-01-06 11:45:00,
2013-01-06 06:50:00,29.2,19.2,30.02,NNW,348,0.0,0.0,66,0.00,CLR,,0.00,WeatherDisplay:10.37,2013-01-06 11:50:00,
2013-01-06 06:55:00,29.7,19.7,30.02,ENE,66,0.0,0.0,66,0.00,CLR,,0.00,WeatherDisplay:10.37,2013-01-06 11:55:00,
2013-01-06 07:00:00,29.8,19.9,30.02,ENE,72,0.0,0.0,66,0.00,CLR,,0.00,WeatherDisplay:10.37,2013-01-06 12:00:00,
2013-01-06 07:05:00,30.0,20.0,30.02,ENE,68,0.0,0.0,66,0.00,CLR,,0.00,WeatherDisplay:10.37,2013-01-06 12:05:00,
2013-01-06 07:10:00,30.4,20.4,30.01,NE,53,0.0,0.0,66,0.00,CLR,,0.00,WeatherDisplay:10.37,2013-01-06 12:10:00,
2013-01-06 07:15:00,30.4,20.4,30.01,North,0,0.0,0.0,66,0.00,CLR,,0.00,WeatherDisplay:10.37,2013-01-06 12:15:00,
2013-01-06 07:20:00,30.4,20.4,30.01,NNW,338,0.0,0.0,66,0.00,CLR,,0.00,WeatherDisplay:10.37,2013-01-06 12:20:00,
2013-01-06 07:25:00,30.4,20.4,30.01,NNW,338,0.0,0.0,66,0.00,CLR,,0.00,WeatherDisplay:10.37,2013-01-06 12:25:00,
2013-01-06 07:30:00,30.6,20.5,30.01,NNW,338,0.0,0.0,66,0.00,CLR,,0.00,WeatherDisplay:10.37,2013-01-06 12:30:00,
2013-01-06 07:35:00,30.6,20.5,30.01,NNW,338,0.0,0.0,66,0.00,CLR,,0.00,WeatherDisplay:10.37,2013-01-06 12:35:00,
2013-01-06 07:40:00,30.6,20.5,30.01,NNW,338,0.0,0.0,66,0.00,CLR,,0.00,WeatherDisplay:10.37,2013-01-06 12:40:00,
2013-01-06 07:45:00,30.7,20.7,30.01,NNW,340,0.0,0.0,66,0.00,CLR,,0.00,WeatherDisplay:10.37,2013-01-06 12:45:00,
2013-01-06 07:50:00,30.8,20.8,30.01,NNE,12,0.0,0.0,66,0.00,CLR,,0.00,WeatherDisplay:10.37,2013-01-06 12:50:00,
2013-01-06 07:55:00,30.9,20.9,30.01,NNE,28,0.0,0.0,66,0.00,CLR,,0.00,WeatherDisplay:10.37,2013-01-06 12:55:00,
2013-01-06 08:00:00,30.9,20.9,30.01,NE,48,0.0,0.0,66,0.00,CLR,,0.00,WeatherDisplay:10.37,2013-01-06 13:00:00,
2013-01-06 08:05:00,31.3,20.9,30.01,East,95,0.0,0.0,65,0.00,CLR,,0.00,WeatherDisplay:10.37,2013-01-06 13:05:00,
2013-01-06 08:10:00,31.3,20.9,30.01,ESE,112,0.0,0.0,65,0.00,CLR,,0.00,WeatherDisplay:10.37,2013-01-06 13:10:00,
2013-01-06 08:15:00,31.5,21.0,30.01,ENE,74,0.0,0.0,65,0.00,CLR,,0.00,WeatherDisplay:10.37,2013-01-06 13:15:00,
2013-01-06 08:20:00,31.6,21.2,30.01,NNE,31,0.0,0.0,65,0.00,CLR,,0.00,WeatherDisplay:10.37,2013-01-06 13:20:00,
2013-01-06 08:25:00,31.8,21.4,30.01,NE,39,0.0,0.0,65,0.00,CLR,,0.00,WeatherDisplay:10.37,2013-01-06 13:25:00,
2013-01-06 08:30:00,31.9,21.5,30.01,ENE,62,0.0,0.0,65,0.00,CLR,,0.00,WeatherDisplay:10.37,2013-01-06 13:30:00,
2013-01-06 08:35:00,32.2,21.7,30.01,ENE,68,0.0,0.0,65,0.00,CLR,,0.00,WeatherDisplay:10.37,2013-01-06 13:35:00,
2013-01-06 08:40:00,32.2,21.7,30.01,ENE,68,0.0,0.0,65,0.00,CLR,,0.00,WeatherDisplay:10.37,2013-01-06 13:40:00,
2013-01-06 08:45:00,32.2,21.8,30.01,ENE,60,0.0,0.0,65,0.00,CLR,,0.00,WeatherDisplay:10.37,2013-01-06 13:45:00,
2013-01-06 08:50:00,32.4,21.9,30.01,NE,49,0.0,0.0,65,0.00,CLR,,0.00,WeatherDisplay:10.37,2013-01-06 13:50:00,
2013-01-06 09:00:00,32.5,22.1,30.01,East,98,0.0,0.0,65,0.00,CLR,,0.00,WeatherDisplay:10.37,2013-01-06 14:00:00,
2013-01-06 09:05:00,32.7,22.2,30.01,ESE,105,0.0,0.0,65,0.00,CLR,,0.00,WeatherDisplay:10.37,2013-01-06 14:05:00,
2013-01-06 09:10:00,32.9,22.0,30.01,ENE,62,0.0,0.0,64,0.00,CLR,,0.00,WeatherDisplay:10.37,2013-01-06 14:10:00,
2013-01-06 09:15:00,33.0,22.1,30.01,NE,40,0.0,0.0,64,0.00,CLR,,0.00,WeatherDisplay:10.37,2013-01-06 14:15:00,
2013-01-06 09:20:00,33.3,22.4,30.01,NNE,18,0.0,0.0,64,0.00,CLR,,0.00,WeatherDisplay:10.37,2013-01-06 14:20:00,
2013-01-06 09:25:00,33.3,22.4,30.01,NNW,343,0.0,0.0,64,0.00,CLR,,0.00,WeatherDisplay:10.37,2013-01-06 14:25:00,
2013-01-06 09:30:00,33.4,22.6,30.01,NNW,328,0.0,0.0,64,0.00,CLR,,0.00,WeatherDisplay:10.37,2013-01-06 14:30:00,
2013-01-06 09:35:00,33.8,22.5,30.01,North,354,0.0,0.0,63,0.00,CLR,,0.00,WeatherDisplay:10.37,2013-01-06 14:35:00,
2013-01-06 09:40:00,34.0,22.7,30.01,NNE,13,0.0,0.0,63,0.00,CLR,,0.00,WeatherDisplay:10.37,2013-01-06 14:40:00,
2013-01-06 09:50:00,34.0,22.7,30.01,ENE,65,1.0,2.0,63,0.00,CLR,,0.00,WeatherDisplay:10.37,2013-01-06 14:50:00,
2013-01-06 09:55:00,34.2,22.9,30.01,ESE,105,1.0,1.0,63,0.00,CLR,,0.00,WeatherDisplay:10.37,2013-01-06 14:55:00,
2013-01-06 10:00:00,34.2,22.5,30.01,ENE,68,0.0,1.0,62,0.00,CLR,,0.00,WeatherDisplay:10.37,2013-01-06 15:00:00,
2013-01-06 10:05:00,34.5,22.8,30.01,North,0,0.0,0.0,62,0.00,CLR,,0.00,WeatherDisplay:10.37,2013-01-06 15:05:00,
2013-01-06 10:10:00,34.5,22.8,30.01,North,5,0.0,0.0,62,0.00,CLR,,0.00,WeatherDisplay:10.37,2013-01-06 15:10:00,
2013-01-06 10:15:00,34.7,23.0,30.01,NE,53,0.0,0.0,62,0.00,CLR,,0.00,WeatherDisplay:10.37,2013-01-06 15:15:00,
2013-01-06 10:20:00,34.9,23.2,30.01,East,101,2.0,3.0,62,0.00,CLR,,0.00,WeatherDisplay:10.37,2013-01-06 15:20:00,
2013-01-06 10:25:00,35.1,23.0,30.01,SSE,167,0.0,3.0,61,0.00,CLR,,0.00,WeatherDisplay:10.37,2013-01-06 15:25:00,
2013-01-06 10:30:00,35.2,23.1,30.01,SE,142,0.0,6.0,61,0.00,CLR,,0.00,WeatherDisplay:10.37,2013-01-06 15:30:00,
2013-01-06 10:35:00,35.6,23.4,30.01,East,94,0.0,0.0,61,0.00,CLR,,0.00,WeatherDisplay:10.37,2013-01-06 15:35:00,
2013-01-06 10:40:00,35.8,23.6,30.00,NW,316,0.0,0.0,61,0.00,CLR,,0.00,WeatherDisplay:10.37,2013-01-06 15:40:00,
2013-01-06 10:45:00,36.0,23.4,30.00,SSE,160,0.0,0.0,60,0.00,CLR,,0.00,WeatherDisplay:10.37,2013-01-06 15:45:00,
2013-01-06 10:50:00,36.1,23.6,30.00,North,4,0.0,0.0,60,0.00,CLR,,0.00,WeatherDisplay:10.37,2013-01-06 15:50:00,
2013-01-06 10:55:00,36.1,23.6,30.00,NW,313,0.0,0.0,60,0.00,CLR,,0.00,WeatherDisplay:10.37,2013-01-06 15:55:00,
2013-01-06 11:00:00,36.3,23.8,29.99,SSE,150,0.0,1.0,60,0.00,CLR,,0.00,WeatherDisplay:10.37,2013-01-06 16:00:00,
2013-01-06 11:05:00,36.5,23.5,29.99,SE,126,0.0,1.0,59,0.00,CLR,,0.00,WeatherDisplay:10.37,2013-01-06 16:05:00,
2013-01-06 11:10:00,36.5,23.5,29.99,SE,127,0.0,0.0,59,0.00,CLR,,0.00,WeatherDisplay:10.37,2013-01-06 16:10:00,
2013-01-06 11:15:00,36.5,23.1,29.99,SE,131,0.0,0.0,58,0.00,CLR,,0.00,WeatherDisplay:10.37,2013-01-06 16:15:00,
2013-01-06 11:20:00,36.7,23.3,29.98,SE,130,0.0,0.0,58,0.00,CLR,,0.00,WeatherDisplay:10.37,2013-01-06 16:20:00,
2013-01-06 11:25:00,36.7,23.3,29.98,ESE,111,0.0,1.0,58,0.00,CLR,,0.00,WeatherDisplay:10.37,2013-01-06 16:25:00,
2013-01-06 11:30:00,36.9,23.0,29.98,East,95,0.0,1.0,57,0.00,CLR,,0.00,WeatherDisplay:10.37,2013-01-06 16:30:00,
2013-01-06 11:35:00,36.9,23.0,29.98,East,80,0.0,0.0,57,0.00,CLR,,0.00,WeatherDisplay:10.37,2013-01-06 16:35:00,
2013-01-06 11:40:00,36.9,23.0,29.98,East,90,2.0,3.0,57,0.00,CLR,,0.00,WeatherDisplay:10.37,2013-01-06 16:40:00,
2013-01-06 11:45:00,37.0,23.2,29.97,East,101,1.0,2.0,57,0.00,CLR,,0.00,WeatherDisplay:10.37,2013-01-06 16:45:00,
2013-01-06 11:50:00,37.0,22.8,29.97,SE,129,3.0,3.0,56,0.00,CLR,,0.00,WeatherDisplay:10.37,2013-01-06 16:50:00,
2013-01-06 11:55:00,37.0,22.8,29.96,SE,138,0.0,3.0,56,0.00,CLR,,0.00,WeatherDisplay:10.37,2013-01-06 16:55:00,
2013-01-06 12:00:00,37.0,22.8,29.96,ESE,109,0.0,0.0,56,0.00,CLR,,0.00,WeatherDisplay:10.37,2013-01-06 17:00:00,
2013-01-06 12:05:00,37.0,22.8,29.95,East,91,0.0,0.0,56,0.00,CLR,,0.00,WeatherDisplay:10.37,2013-01-06 17:05:00,
2013-01-06 12:10:00,37.2,22.9,29.95,ESE,111,0.0,3.0,56,0.02,RA,,0.02,WeatherDisplay:10.37,2013-01-06 17:10:00,
2013-01-06 12:15:00,37.6,23.3,29.94,ESE,111,1.0,2.0,56,0.00,RA,,0.02,WeatherDisplay:10.37,2013-01-06 17:15:00,
2013-01-06 12:20:00,37.6,23.3,29.94,SE,126,1.0,1.0,56,0.00,CLR,,0.02,WeatherDisplay:10.37,2013-01-06 17:20:00,
2013-01-06 12:25:00,37.8,23.5,29.94,SE,132,0.0,1.0,56,0.00,CLR,,0.02,WeatherDisplay:10.37,2013-01-06 17:25:00,
2013-01-06 12:30:00,37.9,23.2,29.94,ESE,112,0.0,0.0,55,0.00,CLR,,0.02,WeatherDisplay:10.37,2013-01-06 17:30:00,
2013-01-06 12:35:00,38.1,23.4,29.93,ESE,112,0.0,0.0,55,0.00,CLR,,0.02,WeatherDisplay:10.37,2013-01-06 17:35:00,
2013-01-06 12:40:00,38.3,23.5,29.94,ESE,114,0.0,0.0,55,0.00,CLR,,0.02,WeatherDisplay:10.37,2013-01-06 17:40:00,
2013-01-06 12:45:00,38.1,23.4,29.94,ESE,109,0.0,0.0,55,0.00,CLR,,0.02,WeatherDisplay:10.37,2013-01-06 17:45:00,
2013-01-06 12:50:00,38.1,22.9,29.94,SE,140,2.0,4.0,54,0.02,RA,,0.04,WeatherDisplay:10.37,2013-01-06 17:50:00,
2013-01-06 12:55:00,38.1,22.9,29.93,SSE,165,0.0,0.0,54,0.00,RA,,0.04,WeatherDisplay:10.37,2013-01-06 17:55:00,
2013-01-06 13:00:00,38.1,22.9,29.93,ESE,113,0.0,1.0,54,0.00,CLR,,0.04,WeatherDisplay:10.37,2013-01-06 18:00:00,
2013-01-06 13:05:00,38.1,22.9,29.93,ESE,104,0.0,1.0,54,0.00,CLR,,0.04,WeatherDisplay:10.37,2013-01-06 18:05:00,
2013-01-06 13:15:00,37.8,22.6,29.93,ENE,66,0.0,2.0,54,0.00,CLR,,0.04,WeatherDisplay:10.37,2013-01-06 18:15:00,
2013-01-06 13:20:00,37.9,22.8,29.92,East,81,0.0,0.0,54,0.00,CLR,,0.04,WeatherDisplay:10.37,2013-01-06 18:20:00,
2013-01-06 13:25:00,37.6,22.4,29.93,East,84,0.0,0.0,54,0.00,CLR,,0.04,WeatherDisplay:10.37,2013-01-06 18:25:00,
2013-01-06 13:30:00,37.8,23.0,29.93,ENE,62,0.0,0.0,55,0.00,CLR,,0.04,WeatherDisplay:10.37,2013-01-06 18:30:00,
2013-01-06 13:35:00,37.6,22.9,29.93,East,92,2.0,2.0,55,0.00,CLR,,0.04,WeatherDisplay:10.37,2013-01-06 18:35:00,
2013-01-06 13:40:00,37.6,22.9,29.93,SE,124,0.0,2.0,55,0.00,CLR,,0.04,WeatherDisplay:10.37,2013-01-06 18:40:00,
2013-01-06 13:45:00,37.6,22.9,29.93,ESE,115,1.0,2.0,55,0.00,CLR,,0.04,WeatherDisplay:10.37,2013-01-06 18:45:00,
2013-01-06 13:50:00,37.6,22.9,29.92,ESE,106,0.0,0.0,55,0.00,CLR,,0.04,WeatherDisplay:10.37,2013-01-06 18:50:00,
2013-01-06 13:55:00,37.6,22.9,29.93,East,95,0.0,1.0,55,0.02,RA,,0.06,WeatherDisplay:10.37,2013-01-06 18:55:00,
2013-01-06 14:00:00,37.6,22.9,29.92,ESE,109,2.0,2.0,55,0.00,RA,,0.06,WeatherDisplay:10.37,2013-01-06 19:00:00,
2013-01-06 14:05:00,37.6,22.9,29.93,ESE,109,0.0,2.0,55,0.00,CLR,,0.06,WeatherDisplay:10.37,2013-01-06 19:05:00,
2013-01-06 14:10:00,37.8,23.0,29.92,East,92,0.0,0.0,55,0.00,CLR,,0.06,WeatherDisplay:10.37,2013-01-06 19:10:00,
2013-01-06 14:15:00,37.8,23.0,29.93,ESE,103,0.0,0.0,55,0.00,CLR,,0.06,WeatherDisplay:10.37,2013-01-06 19:15:00,
2013-01-06 14:20:00,37.8,23.0,29.93,East,89,0.0,3.0,55,0.00,CLR,,0.06,WeatherDisplay:10.37,2013-01-06 19:20:00,
2013-01-06 14:30:00,37.6,22.9,29.93,East,91,0.0,0.0,55,0.00,CLR,,0.06,WeatherDisplay:10.37,2013-01-06 19:30:00,
2013-01-06 14:35:00,37.6,22.9,29.92,SE,127,0.0,1.0,55,0.00,CLR,,0.06,WeatherDisplay:10.37,2013-01-06 19:35:00,
2013-01-06 14:45:00,37.4,22.7,29.93,South,181,0.0,1.0,55,0.00,CLR,,0.06,WeatherDisplay:10.37,2013-01-06 19:45:00,
2013-01-06 14:50:00,37.2,22.9,29.93,SE,134,0.0,0.0,56,0.00,CLR,,0.06,WeatherDisplay:10.37,2013-01-06 19:50:00,
2013-01-06 14:55:00,37.1,22.8,29.93,ESE,111,0.0,0.0,56,0.00,CLR,,0.06,WeatherDisplay:10.37,2013-01-06 19:55:00,
2013-01-06 15:05:00,37.0,22.8,29.93,ESE,117,0.0,1.0,56,0.02,RA,,0.08,WeatherDisplay:10.37,2013-01-06 20:05:00,
2013-01-06 15:10:00,37.0,22.8,29.93,SE,138,0.0,1.0,56,0.00,RA,,0.08,WeatherDisplay:10.37,2013-01-06 20:10:00,
2013-01-06 15:20:00,37.0,23.2,29.94,ESE,110,0.0,0.0,57,0.00,CLR,,0.08,WeatherDisplay:10.37,2013-01-06 20:20:00,
2013-01-06 15:25:00,36.9,23.0,29.94,East,98,0.0,0.0,57,0.00,CLR,,0.08,WeatherDisplay:10.37,2013-01-06 20:25:00,
2013-01-06 15:30:00,36.9,23.0,29.94,ESE,108,0.0,0.0,57,0.00,CLR,,0.08,WeatherDisplay:10.37,2013-01-06 20:30:00,
2013-01-06 15:35:00,36.9,23.0,29.94,ESE,122,0.0,0.0,57,0.00,CLR,,0.08,WeatherDisplay:10.37,2013-01-06 20:35:00,
2013-01-06 15:40:00,36.7,23.3,29.95,East,96,0.0,0.0,58,0.00,CLR,,0.08,WeatherDisplay:10.37,2013-01-06 20:40:00,
2013-01-06 15:45:00,36.7,23.3,29.95,ENE,71,0.0,0.0,58,0.00,CLR,,0.08,WeatherDisplay:10.37,2013-01-06 20:45:00,
2013-01-06 15:55:00,36.5,23.1,29.95,East,87,0.0,0.0,58,0.00,CLR,,0.08,WeatherDisplay:10.37,2013-01-06 20:55:00,
2013-01-06 16:00:00,36.5,23.1,29.95,ENE,75,0.0,0.0,58,0.00,CLR,,0.08,WeatherDisplay:10.37,2013-01-06 21:00:00,
2013-01-06 16:05:00,36.5,23.5,29.96,ENE,71,1.0,1.0,59,0.00,CLR,,0.08,WeatherDisplay:10.37,2013-01-06 21:05:00,
2013-01-06 16:10:00,36.5,23.5,29.96,NE,40,0.0,0.0,59,0.00,CLR,,0.08,WeatherDisplay:10.37,2013-01-06 21:10:00,
2013-01-06 16:15:00,36.3,23.3,29.96,NE,39,2.0,2.0,59,0.00,CLR,,0.08,WeatherDisplay:10.37,2013-01-06 21:15:00,
2013-01-06 16:20:00,36.3,23.3,29.96,ENE,74,0.0,2.0,59,0.00,CLR,,0.08,WeatherDisplay:10.37,2013-01-06 21:20:00,
2013-01-06 16:25:00,36.3,23.8,29.96,SE,125,0.0,0.0,60,0.00,CLR,,0.08,WeatherDisplay:10.37,2013-01-06 21:25:00,
2013-01-06 16:30:00,36.1,23.6,29.97,ESE,121,0.0,0.0,60,0.00,CLR,,0.08,WeatherDisplay:10.37,2013-01-06 21:30:00,
2013-01-06 16:35:00,36.1,23.6,29.97,SE,139,0.0,0.0,60,0.00,CLR,,0.08,WeatherDisplay:10.37,2013-01-06 21:35:00,
2013-01-06 16:40:00,36.1,23.6,29.97,SE,144,0.0,0.0,60,0.00,CLR,,0.08,WeatherDisplay:10.37,2013-01-06 21:40:00,
2013-01-06 16:45:00,36.0,23.8,29.97,ESE,102,0.0,0.0,61,0.00,CLR,,0.08,WeatherDisplay:10.37,2013-01-06 21:45:00,
2013-01-06 16:50:00,36.0,23.8,29.97,ESE,102,0.0,0.0,61,0.00,CLR,,0.08,WeatherDisplay:10.37,2013-01-06 21:50:00,
2013-01-06 16:55:00,36.0,23.8,29.97,ESE,112,0.0,0.0,61,0.00,CLR,,0.08,WeatherDisplay:10.37,2013-01-06 21:55:00,
2013-01-06 17:00:00,35.9,23.8,29.97,NE,51,0.0,0.0,61,0.00,CLR,,0.08,WeatherDisplay:10.37,2013-01-06 22:00:00,
2013-01-06 17:05:00,35.8,23.6,29.98,North,4,0.0,0.0,61,0.00,CLR,,0.08,WeatherDisplay:10.37,2013-01-06 22:05:00,
2013-01-06 17:10:00,35.8,24.0,29.98,NNE,17,0.0,0.0,62,0.00,CLR,,0.08,WeatherDisplay:10.37,2013-01-06 22:10:00,
2013-01-06 17:15:00,35.6,23.8,29.99,NE,34,0.0,0.0,62,0.00,CLR,,0.08,WeatherDisplay:10.37,2013-01-06 22:15:00,
2013-01-06 17:20:00,35.2,23.9,29.99,NE,47,0.0,0.0,63,0.00,CLR,,0.08,WeatherDisplay:10.37,2013-01-06 22:20:00,
2013-01-06 17:25:00,35.2,23.9,29.99,East,90,0.0,0.0,63,0.00,CLR,,0.08,WeatherDisplay:10.37,2013-01-06 22:25:00,
2013-01-06 17:30:00,35.2,24.3,29.99,ESE,112,0.0,0.0,64,0.00,CLR,,0.08,WeatherDisplay:10.37,2013-01-06 22:30:00,
2013-01-06 17:35:00,35.1,24.5,29.99,ESE,112,0.0,0.0,65,0.00,CLR,,0.08,WeatherDisplay:10.37,2013-01-06 22:35:00,
2013-01-06 17:40:00,35.1,24.5,30.00,ESE,112,0.0,0.0,65,0.00,CLR,,0.08,WeatherDisplay:10.37,2013-01-06 22:40:00,